EDT,Max TemperatureF,Mean TemperatureF,Min TemperatureF,Max Dew PointF,MeanDew PointF,Min DewpointF,Max Humidity, Mean Humidity, Min Humidity, Max Sea Level PressureIn, Mean Sea Level PressureIn, Min Sea Level PressureIn, Max VisibilityMiles, Mean VisibilityMiles, Min VisibilityMiles, Max Wind SpeedMPH, Mean Wind SpeedMPH, Max Gust SpeedMPH,PrecipitationIn, CloudCover, Events, WindDirDegrees
2013-5-1,66,54,42,42,36,29,77,52,27,30.45,30.40,30.32,10,10,10,17,8,22,0.00,0,,91
2013-5-2,71,56,41,45,40,37,93,62,31,30.44,30.38,30.31,10,10,10,13,4,16,0.00,0,,102
2013-5-3,64,55,46,43,39,35,82,59,36,30.42,30.37,30.33,10,10,10,20,9,24,0.00,1,,123
2013-5-4,67,54,41,44,41,39,89,63,37,30.35,30.27,30.20,10,10,10,15,7,22,0.00,0,,92
2013-5-5,63,52,41,42,39,37,89,68,46,30.27,30.23,30.19,10,10,9,15,7,23,0.00,2,,93
2013-5-6,68,57,45,53,47,41,92,75,58,30.25,30.19,30.12,10,9,7,15,6,18,0.00,5,,113
2013-5-7,70,61,51,61,54,48,100,82,63,30.16,30.10,30.05,10,8,2,14,8,32,0.15,7,Rain,97
2013-5-8,71,64,57,61,58,51,97,84,70,30.05,29.99,29.92,10,8,1,15,6,18,0.74,7,Rain,92
2013-5-9,70,63,55,55,54,52,93,73,53,29.96,29.93,29.88,10,8,2,12,4,15,0.33,7,Rain,351
2013-5-10,81,68,54,61,55,50,93,64,35,29.99,29.93,29.88,10,8,2,15,5,28,0.45,2,Rain-Thunderstorm,280
2013-5-11,75,68,61,63,61,58,93,79,64,29.92,29.80,29.69,10,8,2,16,6,21,0.27,7,Rain-Thunderstorm,244
2013-5-12,65,56,47,57,39,24,86,56,26,29.96,29.77,29.68,10,10,9,23,10,32,0.01,2,Rain,305
2013-5-13,55,47,39,34,29,22,73,51,28,30.12,30.03,29.96,10,10,10,18,7,26,0.00,2,,313
2013-5-14,61,49,37,32,29,21,82,53,24,30.14,30.09,30.03,10,10,10,15,6,22,0.00,0,,317
2013-5-15,73,61,48,57,49,32,78,66,53,30.05,29.86,29.69,10,10,10,18,6,23,T,4,Rain,216
2013-5-16,80,68,56,60,57,49,93,70,47,29.83,29.76,29.70,10,9,5,13,4,17,0.03,1,Rain,286
2013-5-17,74,64,54,48,42,38,57,42,27,30.18,30.04,29.86,10,10,10,15,5,20,0.00,0,,344
2013-5-18,65,58,51,54,50,45,86,73,60,30.29,30.25,30.19,10,10,9,14,6,20,0.02,7,Rain,156
2013-5-19,60,58,55,59,56,54,100,95,90,30.28,30.21,30.15,10,3,0,12,6,15,0.18,8,Fog-Rain,127
2013-5-20,78,68,57,66,62,56,100,81,62,30.14,30.05,29.96,10,6,0,10,2,17,T,6,Fog,236
2013-5-21,83,73,62,69,65,61,100,79,58,29.98,29.93,29.84,10,5,0,17,6,23,0.00,2,Fog,243
2013-5-22,85,76,66,72,68,64,100,78,55,29.92,29.86,29.80,10,6,3,15,7,20,0.00,3,,221
2013-5-23,81,72,63,69,66,64,90,79,67,29.88,29.83,29.73,10,9,2,21,11,28,0.51,7,Rain,219
2013-5-24,66,55,44,64,53,38,100,83,66,29.99,29.80,29.70,10,7,1,24,9,32,0.33,8,Rain-Thunderstorm,338
2013-5-25,61,53,44,41,36,31,89,63,36,30.03,29.97,29.94,10,10,9,24,11,37,0.04,7,Rain,343
2013-5-26,69,58,47,36,35,32,61,44,27,30.19,30.07,30.01,10,10,10,20,8,28,0.00,1,,327
2013-5-27,72,58,43,44,38,36,82,56,29,30.25,30.19,30.14,10,10,10,14,5,18,0.00,0,,292
2013-5-28,64,57,50,61,55,45,100,81,62,30.20,30.15,30.10,10,5,0,9,2,12,0.28,6,Fog-Rain,96
2013-5-29,88,74,59,69,62,58,100,72,43,30.11,30.06,30.00,10,6,0,14,5,18,0.00,3,Fog,263
2013-5-30,91,80,68,66,64,60,90,64,38,30.13,30.09,30.05,10,10,7,13,5,18,0.00,0,,274
2013-5-31,91,79,66,68,63,58,87,61,34,30.12,30.06,29.99,10,10,6,15,5,21,0.00,0,,246